| time (UTC) | temp F | wind direction | speed MPH | gust MPH | rain 1hr in | rain 24hr in | rain mn in | humidity % | barometer mb |
| 20260506192618 | 65 | 232 | 5.0 | 15.0 | 0.00 | 0.20 | 0.20 | 86 | 1007.1 |
| 20260506191856 | 65 | 223 | 5.0 | 15.0 | 0.00 | 0.20 | 0.20 | 86 | 1007.2 |
| 20260506191355 | 65 | 222 | 5.0 | 15.0 | 0.00 | 0.20 | 0.20 | 87 | 1007.2 |
| 20260506190901 | 65 | 228 | 5.0 | 15.0 | 0.00 | 0.20 | 0.20 | 87 | 1007.3 |
| 20260506190356 | 64 | 165 | 4.0 | 11.0 | 0.00 | 0.20 | 0.20 | 87 | 1007.5 |
| 20260506185859 | 64 | 209 | 3.0 | 10.0 | 0.00 | 0.20 | 0.20 | 88 | 1007.5 |
| 20260506185359 | 64 | 180 | 4.0 | 10.0 | 0.00 | 0.20 | 0.20 | 88 | 1007.6 |
| 20260506184855 | 63 | 209 | 5.0 | 12.0 | 0.00 | 0.20 | 0.20 | 88 | 1007.6 |
| 20260506184356 | 63 | 207 | 5.0 | 12.0 | 0.00 | 0.20 | 0.20 | 88 | 1007.7 |
| 20260506183854 | 63 | 154 | 4.0 | 11.0 | 0.00 | 0.20 | 0.20 | 89 | 1007.7 |
| 20260506183348 | 63 | 221 | 4.0 | 12.0 | 0.00 | 0.20 | 0.20 | 89 | 1007.7 |
| 20260506182843 | 62 | 202 | 6.0 | 12.0 | 0.00 | 0.20 | 0.20 | 89 | 1007.8 |
| 20260506182343 | 62 | 211 | 5.0 | 13.0 | 0.00 | 0.20 | 0.20 | 89 | 1007.8 |
| 20260506182110 | 62 | 212 | 5.0 | 13.0 | 0.00 | 0.20 | 0.20 | 89 | 1007.8 |
| 20260506181343 | 62 | 209 | 5.0 | 11.0 | 0.00 | 0.20 | 0.20 | 89 | 1008.0 |
| 20260506180843 | 62 | 215 | 4.0 | 11.0 | 0.00 | 0.20 | 0.20 | 89 | 1008.1 |
| 20260506180343 | 62 | 207 | 4.0 | 11.0 | 0.00 | 0.20 | 0.20 | 89 | 1008.2 |
| 20260506175846 | 62 | 144 | 5.0 | 11.0 | 0.00 | 0.20 | 0.20 | 89 | 1008.1 |
| 20260506175343 | 62 | 207 | 6.0 | 14.0 | 0.00 | 0.20 | 0.20 | 89 | 1008.0 |
| 20260506174844 | 62 | 222 | 6.0 | 14.0 | 0.00 | 0.20 | 0.20 | 89 | 1008.1 |
| 20260506174349 | 62 | 220 | 6.0 | 15.0 | 0.00 | 0.20 | 0.20 | 89 | 1007.9 |
| 20260506173842 | 61 | 186 | 7.0 | 16.0 | 0.00 | 0.20 | 0.20 | 89 | 1007.9 |
| 20260506173344 | 61 | 247 | 6.0 | 16.0 | 0.00 | 0.20 | 0.20 | 89 | 1008.0 |
| 20260506172843 | 61 | 153 | 5.0 | 14.0 | 0.00 | 0.20 | 0.20 | 89 | 1008.1 |
| 20260506172349 | 61 | 165 | 7.0 | 14.0 | 0.00 | 0.20 | 0.20 | 89 | 1008.0 |
| 20260506171836 | 61 | 221 | 7.0 | 14.0 | 0.00 | 0.20 | 0.20 | 89 | 1008.0 |
| 20260506171333 | 61 | 207 | 6.0 | 14.0 | 0.00 | 0.20 | 0.20 | 89 | 1008.0 |
| 20260506170833 | 61 | 154 | 6.0 | 17.0 | 0.00 | 0.20 | 0.20 | 89 | 1007.9 |
| 20260506170329 | 61 | 230 | 6.0 | 17.0 | 0.01 | 0.20 | 0.20 | 89 | 1007.9 |
| 20260506165834 | 61 | 268 | 5.0 | 12.0 | 0.01 | 0.20 | 0.20 | 90 | 1008.0 |
| 20260506165555 | 61 | 194 | 5.0 | 15.0 | 0.01 | 0.20 | 0.20 | 90 | 1008.0 |
| 20260506164830 | 61 | 180 | 6.0 | 18.0 | 0.02 | 0.20 | 0.20 | 90 | 1008.2 |
| 20260506164330 | 61 | 228 | 5.0 | 18.0 | 0.02 | 0.20 | 0.20 | 90 | 1008.2 |
| 20260506163831 | 61 | 136 | 5.0 | 11.0 | 0.04 | 0.20 | 0.20 | 90 | 1008.3 |
| 20260506163329 | 61 | 217 | 5.0 | 15.0 | 0.05 | 0.20 | 0.20 | 90 | 1008.2 |
| 20260506162829 | 61 | 180 | 5.0 | 15.0 | 0.06 | 0.20 | 0.20 | 90 | 1008.3 |
| 20260506162331 | 61 | 209 | 5.0 | 15.0 | 0.07 | 0.20 | 0.20 | 90 | 1008.4 |
| 20260506161829 | 61 | 147 | 5.0 | 15.0 | 0.08 | 0.20 | 0.20 | 90 | 1008.4 |
| 20260506161544 | 62 | 311 | 5.0 | 15.0 | 0.09 | 0.20 | 0.20 | 90 | 1008.3 |
| 20260506160825 | 61 | 160 | 5.0 | 15.0 | 0.09 | 0.20 | 0.20 | 90 | 1008.4 |
| 20260506160325 | 61 | 138 | 5.0 | 14.0 | 0.09 | 0.19 | 0.19 | 90 | 1008.3 |
| 20260506155825 | 61 | 207 | 5.0 | 14.0 | 0.09 | 0.19 | 0.19 | 90 | 1008.1 |
| 20260506155541 | 61 | 184 | 5.0 | 16.0 | 0.10 | 0.19 | 0.19 | 90 | 1008.4 |
| 20260506154824 | 61 | 140 | 6.0 | 16.0 | 0.09 | 0.18 | 0.18 | 90 | 1008.7 |
| 20260506154326 | 61 | 165 | 5.0 | 16.0 | 0.10 | 0.18 | 0.18 | 90 | 1008.9 |
| 20260506154040 | 61 | 146 | 4.0 | 14.0 | 0.09 | 0.15 | 0.15 | 90 | 1009.0 |
| 20260506153924 | 61 | 133 | 3.0 | 14.0 | 0.09 | 0.16 | 0.17 | 90 | 1008.9 |
| 20260506152828 | 61 | 145 | 3.0 | 9.0 | 0.08 | 0.14 | 0.14 | 89 | 1009.2 |
| 20260506152325 | 61 | 111 | 4.0 | 10.0 | 0.08 | 0.13 | 0.13 | 89 | 1009.2 |
| 20260506151825 | 61 | 169 | 4.0 | 12.0 | 0.07 | 0.12 | 0.12 | 89 | 1009.3 |
| 20260506151327 | 61 | 254 | 3.0 | 12.0 | 0.07 | 0.11 | 0.11 | 89 | 1009.3 |
| 20260506150829 | 61 | 227 | 3.0 | 9.0 | 0.07 | 0.11 | 0.11 | 89 | 1009.3 |
| 20260506150326 | 61 | 190 | 3.0 | 14.0 | 0.07 | 0.10 | 0.10 | 89 | 1009.1 |
| 20260506145825 | 61 | 184 | 4.0 | 14.0 | 0.07 | 0.10 | 0.10 | 89 | 1009.1 |
| 20260506145326 | 61 | 164 | 4.0 | 12.0 | 0.07 | 0.09 | 0.09 | 89 | 1009.1 |
| 20260506144827 | 61 | 194 | 5.0 | 12.0 | 0.08 | 0.09 | 0.09 | 89 | 1009.0 |
| 20260506144325 | 61 | 142 | 5.0 | 15.0 | 0.08 | 0.08 | 0.08 | 89 | 1009.0 |
| 20260506143826 | 62 | 136 | 5.0 | 15.0 | 0.07 | 0.07 | 0.07 | 89 | 1009.0 |
| 20260506143326 | 62 | 161 | 4.0 | 12.0 | 0.06 | 0.06 | 0.06 | 89 | 1009.1 |
| 20260506142825 | 62 | 252 | 3.0 | 12.0 | 0.06 | 0.06 | 0.06 | 89 | 1009.1 |
| 20260506142800 | 62 | 200 | 3.0 | 12.0 | 0.05 | 0.05 | 0.05 | 88 | 1009.2 |
| 20260506141824 | 62 | 193 | 3.0 | 10.0 | 0.05 | 0.05 | 0.05 | 88 | 1009.2 |
| 20260506141328 | 62 | 238 | 3.0 | 10.0 | 0.04 | 0.04 | 0.04 | 88 | 1009.1 |
| 20260506140826 | 62 | 163 | 3.0 | 11.0 | 0.04 | 0.04 | 0.04 | 88 | 1009.1 |
| 20260506140325 | 62 | 172 | 4.0 | 11.0 | 0.03 | 0.03 | 0.03 | 87 | 1009.1 |
| 20260506135825 | 62 | 169 | 4.0 | 8.0 | 0.03 | 0.03 | 0.03 | 87 | 1009.1 |
| 20260506135325 | 62 | 130 | 4.0 | 11.0 | 0.02 | 0.02 | 0.02 | 86 | 1009.1 |
| 20260506135043 | 62 | 181 | 4.0 | 15.0 | 0.01 | 0.01 | 0.01 | 85 | 1009.2 |
| 20260506134539 | 63 | 355 | 3.0 | 15.0 | 0.00 | 0.00 | 0.00 | 84 | 1009.1 |
| 20260506133806 | 63 | 210 | 4.0 | 14.0 | 0.00 | 0.00 | 0.00 | 84 | 1009.0 |
| 20260506133307 | 63 | 157 | 4.0 | 13.0 | 0.00 | 0.00 | 0.00 | 83 | 1008.9 |
| 20260506132754 | 63 | 223 | 4.0 | 12.0 | 0.00 | 0.00 | 0.00 | 83 | 1009.1 |
| 20260506132246 | 64 | 155 | 5.0 | 12.0 | 0.00 | 0.00 | 0.00 | 82 | 1009.0 |
| 20260506131739 | 64 | 225 | 4.0 | 10.0 | 0.00 | 0.00 | 0.00 | 82 | 1009.0 |
| 20260506131236 | 64 | 202 | 4.0 | 16.0 | 0.00 | 0.00 | 0.00 | 82 | 1009.1 |
| 20260506130730 | 64 | 232 | 4.0 | 16.0 | 0.00 | 0.00 | 0.00 | 81 | 1009.1 |
| 20260506130224 | 64 | 115 | 4.0 | 13.0 | 0.00 | 0.00 | 0.00 | 82 | 1009.2 |
| 20260506125722 | 64 | 187 | 5.0 | 13.0 | 0.00 | 0.00 | 0.00 | 81 | 1009.1 |
| 20260506125222 | 64 | 221 | 5.0 | 12.0 | 0.00 | 0.00 | 0.00 | 81 | 1009.2 |
| 20260506124729 | 64 | 127 | 6.0 | 12.0 | 0.00 | 0.00 | 0.00 | 81 | 1009.2 |
| 20260506124223 | 64 | 148 | 5.0 | 16.0 | 0.00 | 0.00 | 0.00 | 80 | 1009.2 |
| 20260506123724 | 64 | 206 | 6.0 | 16.0 | 0.00 | 0.00 | 0.00 | 79 | 1009.3 |
| 20260506123658 | 65 | 223 | 7.0 | 19.0 | 0.00 | 0.00 | 0.00 | 78 | 1009.3 |
| 20260506122720 | 65 | 130 | 7.0 | 19.0 | 0.00 | 0.00 | 0.00 | 78 | 1009.4 |
| 20260506122221 | 65 | 226 | 5.0 | 14.0 | 0.00 | 0.00 | 0.00 | 77 | 1009.2 |
| 20260506121720 | 65 | 219 | 5.0 | 13.0 | 0.00 | 0.00 | 0.00 | 78 | 1009.1 |
| 20260506121222 | 65 | 225 | 7.0 | 19.0 | 0.00 | 0.00 | 0.00 | 78 | 1009.0 |
| 20260506120950 | 65 | 157 | 7.0 | 19.0 | 0.00 | 0.00 | 0.00 | 78 | 1008.9 |
| 20260506120220 | 65 | 191 | 6.0 | 16.0 | 0.00 | 0.00 | 0.00 | 78 | 1009.0 |
| 20260506115947 | 65 | 190 | 6.0 | 17.0 | 0.00 | 0.00 | 0.00 | 78 | 1008.9 |
| 20260506115223 | 65 | 196 | 6.0 | 17.0 | 0.00 | 0.00 | 0.00 | 78 | 1008.9 |
| 20260506114722 | 65 | 188 | 6.0 | 12.0 | 0.00 | 0.00 | 0.00 | 78 | 1008.7 |
| 20260506114222 | 65 | 254 | 6.0 | 16.0 | 0.00 | 0.00 | 0.00 | 78 | 1008.7 |
| 20260506113721 | 65 | 200 | 6.0 | 16.0 | 0.00 | 0.00 | 0.00 | 78 | 1008.7 |
| 20260506113216 | 64 | 207 | 5.0 | 15.0 | 0.00 | 0.00 | 0.00 | 78 | 1008.6 |
| 20260506112708 | 64 | 212 | 5.0 | 15.0 | 0.00 | 0.00 | 0.00 | 78 | 1008.7 |
| 20260506112215 | 64 | 205 | 6.0 | 16.0 | 0.00 | 0.00 | 0.00 | 78 | 1008.6 |
| 20260506111656 | 64 | 161 | 6.0 | 16.0 | 0.00 | 0.00 | 0.00 | 78 | 1008.5 |
| 20260506111150 | 64 | 121 | 5.0 | 13.0 | 0.00 | 0.00 | 0.00 | 78 | 1008.5 |
| 20260506110643 | 64 | 199 | 5.0 | 14.0 | 0.00 | 0.00 | 0.00 | 78 | 1008.5 |
| 20260506110141 | 64 | 225 | 5.0 | 14.0 | 0.00 | 0.00 | 0.00 | 79 | 1008.5 |
| 20260506105631 | 64 | 192 | 5.0 | 11.0 | 0.00 | 0.00 | 0.00 | 79 | 1008.4 |
| 20260506105125 | 64 | 118 | 6.0 | 16.0 | 0.00 | 0.00 | 0.00 | 79 | 1008.3 |
| 20260506104619 | 64 | 242 | 7.0 | 16.0 | 0.00 | 0.00 | 0.00 | 78 | 1008.4 |
| 20260506104113 | 64 | 161 | 6.0 | 19.0 | 0.00 | 0.00 | 0.00 | 78 | 1008.4 |
| 20260506103609 | 64 | 188 | 6.0 | 19.0 | 0.00 | 0.00 | 0.00 | 78 | 1008.3 |
| 20260506103103 | 64 | 194 | 6.0 | 15.0 | 0.00 | 0.00 | 0.00 | 79 | 1008.2 |
| 20260506102555 | 64 | 202 | 5.0 | 15.0 | 0.00 | 0.00 | 0.00 | 79 | 1008.4 |
| 20260506102051 | 64 | 163 | 5.0 | 13.0 | 0.00 | 0.00 | 0.00 | 79 | 1008.3 |
| 20260506101809 | 64 | 284 | 6.0 | 13.0 | 0.00 | 0.00 | 0.00 | 78 | 1008.3 |
| 20260506101038 | 64 | 162 | 5.0 | 12.0 | 0.00 | 0.00 | 0.00 | 78 | 1008.2 |
| 20260506100533 | 64 | 171 | 5.0 | 13.0 | 0.00 | 0.00 | 0.00 | 78 | 1008.2 |
| 20260506100026 | 64 | 159 | 6.0 | 15.0 | 0.00 | 0.00 | 0.00 | 78 | 1008.2 |
| 20260506095521 | 64 | 238 | 6.0 | 17.0 | 0.00 | 0.00 | 0.00 | 78 | 1008.3 |
| 20260506095239 | 64 | 196 | 5.0 | 17.0 | 0.00 | 0.00 | 0.00 | 78 | 1008.3 |
| 20260506094508 | 64 | 205 | 4.0 | 13.0 | 0.00 | 0.00 | 0.00 | 78 | 1008.2 |
| 20260506094002 | 64 | 221 | 4.0 | 15.0 | 0.00 | 0.00 | 0.00 | 77 | 1008.2 |
| 20260506093456 | 65 | 146 | 4.0 | 15.0 | 0.00 | 0.00 | 0.00 | 77 | 1008.2 |
| 20260506092950 | 65 | 171 | 4.0 | 11.0 | 0.00 | 0.00 | 0.00 | 76 | 1008.3 |
| 20260506092707 | 65 | 200 | 4.0 | 11.0 | 0.00 | 0.00 | 0.00 | 76 | 1008.4 |
| 20260506092208 | 65 | 192 | 4.0 | 11.0 | 0.00 | 0.00 | 0.00 | 76 | 1008.5 |
| 20260506091434 | 65 | 195 | 5.0 | 12.0 | 0.00 | 0.00 | 0.00 | 75 | 1008.4 |
| 20260506090926 | 65 | 178 | 5.0 | 12.0 | 0.00 | 0.00 | 0.00 | 75 | 1008.4 |
| 20260506090641 | 65 | 148 | 4.0 | 12.0 | 0.00 | 0.00 | 0.00 | 75 | 1008.5 |
| 20260506085914 | 66 | 132 | 5.0 | 15.0 | 0.00 | 0.00 | 0.00 | 74 | 1008.6 |
| 20260506085635 | 66 | 148 | 6.0 | 15.0 | 0.00 | 0.00 | 0.00 | 74 | 1008.5 |
| 20260506085126 | 66 | 171 | 5.0 | 12.0 | 0.00 | 0.00 | 0.00 | 74 | 1008.6 |
| 20260506084359 | 66 | 276 | 4.0 | 11.0 | 0.00 | 0.00 | 0.00 | 74 | 1008.6 |
| 20260506083859 | 66 | 159 | 5.0 | 10.0 | 0.00 | 0.00 | 0.00 | 73 | 1008.5 |
| 20260506083401 | 66 | 245 | 4.0 | 23.0 | 0.00 | 0.00 | 0.00 | 73 | 1008.6 |
| 20260506082858 | 66 | 152 | 4.0 | 23.0 | 0.00 | 0.00 | 0.00 | 73 | 1008.6 |
| 20260506082622 | 66 | 159 | 5.0 | 12.0 | 0.00 | 0.00 | 0.00 | 72 | 1008.6 |
| 20260506082122 | 67 | 165 | 5.0 | 15.0 | 0.00 | 0.00 | 0.00 | 72 | 1008.5 |
| 20260506081401 | 67 | 175 | 5.0 | 15.0 | 0.00 | 0.00 | 0.00 | 72 | 1008.5 |
| 20260506080857 | 67 | 198 | 4.0 | 10.0 | 0.00 | 0.00 | 0.00 | 72 | 1008.6 |
| 20260506080401 | 67 | 155 | 4.0 | 10.0 | 0.00 | 0.00 | 0.00 | 71 | 1008.6 |
| 20260506073356 | 67 | 128 | 5.0 | 12.0 | 0.00 | 0.00 | 0.00 | 70 | 1008.8 |
| 20260506073115 | 67 | 195 | 5.0 | 11.0 | 0.00 | 0.00 | 0.00 | 69 | 1008.7 |
| 20260506072357 | 67 | 96 | 4.0 | 10.0 | 0.00 | 0.00 | 0.00 | 69 | 1008.8 |
| 20260506071849 | 67 | 178 | 4.0 | 10.0 | 0.00 | 0.00 | 0.00 | 69 | 1008.8 |
| 20260506071349 | 67 | 213 | 4.0 | 11.0 | 0.00 | 0.00 | 0.00 | 69 | 1008.9 |
| 20260506070850 | 67 | 226 | 4.0 | 13.0 | 0.00 | 0.00 | 0.00 | 69 | 1008.9 |
| 20260506070844 | 67 | 147 | 4.0 | 13.0 | 0.00 | 0.00 | 0.00 | 69 | 1008.9 |
| 20260506070110 | 67 | 200 | 4.0 | 10.0 | 0.00 | 0.00 | 0.00 | 68 | 1009.0 |
| 20260506062341 | 67 | 146 | 3.0 | 7.0 | 0.00 | 0.00 | 0.00 | 67 | 1009.3 |
| 20260506062335 | 67 | 174 | 4.0 | 8.0 | 0.00 | 0.00 | 0.00 | 67 | 1009.4 |
| 20260506061343 | 67 | 171 | 4.0 | 10.0 | 0.00 | 0.00 | 0.00 | 67 | 1009.4 |
| 20260506060853 | 67 | 141 | 4.0 | 10.0 | 0.00 | 0.00 | 0.00 | 67 | 1009.4 |
| 20260506060339 | 67 | 163 | 3.0 | 8.0 | 0.00 | 0.00 | 0.00 | 66 | 1009.4 |
| 20260506051339 | 67 | 149 | 3.0 | 8.0 | 0.00 | 0.00 | 0.00 | 65 | 1009.7 |
| 20260506050842 | 67 | 125 | 3.0 | 7.0 | 0.00 | 0.00 | 0.00 | 64 | 1009.7 |
| 20260506050336 | 67 | 146 | 3.0 | 7.0 | 0.00 | 0.00 | 0.00 | 64 | 1009.8 |
| 20260506044828 | 67 | 161 | 3.0 | 9.0 | 0.00 | 0.00 | 0.00 | 63 | 1009.9 |
| 20260506044555 | 67 | 160 | 3.0 | 10.0 | 0.00 | 0.00 | 0.00 | 63 | 1009.8 |
| 20260506043830 | 67 | 165 | 3.0 | 10.0 | 0.00 | 0.00 | 0.00 | 63 | 1009.9 |
| 20260506043558 | 67 | 166 | 3.0 | 9.0 | 0.00 | 0.00 | 0.00 | 63 | 1009.9 |
| 20260506042834 | 67 | 191 | 3.0 | 8.0 | 0.00 | 0.00 | 0.00 | 63 | 1009.9 |
| 20260506042331 | 67 | 201 | 3.0 | 9.0 | 0.00 | 0.00 | 0.00 | 63 | 1009.9 |
| 20260506041827 | 67 | 230 | 4.0 | 11.0 | 0.00 | 0.00 | 0.00 | 63 | 1009.9 |
| 20260506041554 | 67 | 198 | 4.0 | 11.0 | 0.00 | 0.00 | 0.00 | 63 | 1009.9 |
| 20260506040828 | 67 | 155 | 4.0 | 9.0 | 0.00 | 0.00 | 0.00 | 63 | 1009.9 |
| 20260506040549 | 67 | 147 | 3.0 | 9.0 | 0.00 | 0.00 | 0.00 | 63 | 1009.9 |
| 20260506035823 | 67 | 180 | 4.0 | 9.0 | 0.00 | 0.00 | 0.00 | 63 | 1009.8 |
| 20260506035324 | 67 | 197 | 4.0 | 9.0 | 0.00 | 0.00 | 0.00 | 63 | 1009.9 |
| 20260506034826 | 67 | 184 | 3.0 | 7.0 | 0.00 | 0.00 | 0.00 | 63 | 1009.9 |
| 20260506034325 | 67 | 150 | 4.0 | 9.0 | 0.00 | 0.00 | 0.00 | 63 | 1009.9 |
| 20260506033823 | 67 | 177 | 4.0 | 9.0 | 0.00 | 0.00 | 0.00 | 63 | 1009.9 |
| 20260506033324 | 67 | 209 | 3.0 | 9.0 | 0.00 | 0.00 | 0.00 | 63 | 1009.8 |
| 20260506032824 | 67 | 140 | 3.0 | 7.0 | 0.00 | 0.00 | 0.00 | 63 | 1009.9 |
| 20260506032324 | 67 | 164 | 3.0 | 6.0 | 0.00 | 0.00 | 0.00 | 62 | 1009.8 |
| 20260506031823 | 67 | 203 | 3.0 | 10.0 | 0.00 | 0.00 | 0.00 | 62 | 1009.8 |
| 20260506031323 | 68 | 185 | 4.0 | 10.0 | 0.00 | 0.00 | 0.00 | 62 | 1009.8 |
| 20260506031312 | 68 | 184 | 4.0 | 8.0 | 0.00 | 0.00 | 0.00 | 62 | 1009.7 |
| 20260506030323 | 68 | 158 | 4.0 | 10.0 | 0.00 | 0.00 | 0.00 | 61 | 1009.8 |
| 20260506025824 | 68 | 154 | 4.0 | 12.0 | 0.00 | 0.00 | 0.00 | 61 | 1009.8 |
| 20260506025321 | 68 | 146 | 4.0 | 12.0 | 0.00 | 0.00 | 0.00 | 61 | 1009.8 |
| 20260506024821 | 68 | 215 | 3.0 | 12.0 | 0.00 | 0.00 | 0.00 | 61 | 1009.8 |
| 20260506024544 | 68 | 148 | 3.0 | 10.0 | 0.00 | 0.00 | 0.00 | 61 | 1009.8 |
| 20260506024037 | 68 | 207 | 4.0 | 12.0 | 0.00 | 0.00 | 0.00 | 60 | 1009.8 |
| 20260506023310 | 69 | 177 | 4.0 | 12.0 | 0.00 | 0.00 | 0.00 | 60 | 1009.7 |
| 20260506022810 | 69 | 242 | 4.0 | 9.0 | 0.00 | 0.00 | 0.00 | 59 | 1009.8 |
| 20260506022301 | 69 | 177 | 4.0 | 10.0 | 0.00 | 0.00 | 0.00 | 59 | 1009.9 |
| 20260506021754 | 69 | 198 | 4.0 | 12.0 | 0.00 | 0.00 | 0.00 | 59 | 1009.9 |
| 20260506021251 | 69 | 229 | 4.0 | 12.0 | 0.00 | 0.00 | 0.00 | 59 | 1009.9 |
| 20260506021026 | 69 | 163 | 4.0 | 10.0 | 0.00 | 0.00 | 0.00 | 58 | 1009.9 |
| 20260506020306 | 69 | 157 | 5.0 | 14.0 | 0.00 | 0.00 | 0.00 | 57 | 1009.8 |
| 20260506015751 | 70 | 259 | 5.0 | 14.0 | 0.00 | 0.00 | 0.00 | 57 | 1009.8 |
| 20260506015252 | 69 | 210 | 3.0 | 9.0 | 0.00 | 0.00 | 0.00 | 57 | 1009.8 |
| 20260506014754 | 69 | 207 | 3.0 | 9.0 | 0.00 | 0.00 | 0.00 | 57 | 1009.6 |
| 20260506014250 | 69 | 158 | 4.0 | 9.0 | 0.00 | 0.00 | 0.00 | 57 | 1009.5 |
| 20260506013751 | 70 | 159 | 4.0 | 9.0 | 0.00 | 0.00 | 0.00 | 56 | 1009.5 |
| 20260506013251 | 70 | 209 | 4.0 | 9.0 | 0.00 | 0.00 | 0.00 | 56 | 1009.5 |
| 20260506012749 | 70 | 216 | 3.0 | 9.0 | 0.00 | 0.00 | 0.00 | 55 | 1009.6 |
| 20260506012510 | 70 | 216 | 4.0 | 9.0 | 0.00 | 0.00 | 0.00 | 55 | 1009.4 |
| 20260506011745 | 71 | 120 | 4.0 | 8.0 | 0.00 | 0.00 | 0.00 | 54 | 1009.3 |
| 20260506011248 | 71 | 179 | 3.0 | 8.0 | 0.00 | 0.00 | 0.00 | 54 | 1009.3 |
| 20260506010746 | 71 | 157 | 3.0 | 10.0 | 0.00 | 0.00 | 0.00 | 53 | 1009.3 |
| 20260506010249 | 72 | 154 | 5.0 | 12.0 | 0.00 | 0.00 | 0.00 | 52 | 1009.2 |
| 20260506010232 | 72 | 196 | 6.0 | 12.0 | 0.00 | 0.00 | 0.00 | 52 | 1009.1 |
| 20260506005248 | 72 | 189 | 6.0 | 16.0 | 0.00 | 0.00 | 0.00 | 51 | 1009.0 |
| 20260506004745 | 72 | 142 | 5.0 | 16.0 | 0.00 | 0.00 | 0.00 | 51 | 1009.0 |
| 20260506004243 | 72 | 134 | 5.0 | 12.0 | 0.00 | 0.00 | 0.00 | 50 | 1009.0 |
| 20260506003731 | 72 | 196 | 5.0 | 12.0 | 0.00 | 0.00 | 0.00 | 50 | 1008.9 |
| 20260506003454 | 73 | 194 | 5.0 | 12.0 | 0.00 | 0.00 | 0.00 | 49 | 1008.9 |
| 20260506002719 | 73 | 151 | 5.0 | 9.0 | 0.00 | 0.00 | 0.00 | 49 | 1008.9 |
| 20260506002213 | 73 | 153 | 5.0 | 10.0 | 0.00 | 0.00 | 0.00 | 49 | 1008.9 |
| 20260506001927 | 73 | 151 | 4.0 | 10.0 | 0.00 | 0.00 | 0.00 | 49 | 1008.8 |
| 20260506001202 | 73 | 139 | 4.0 | 9.0 | 0.00 | 0.00 | 0.00 | 49 | 1008.7 |
| 20260506000657 | 74 | 149 | 3.0 | 8.0 | 0.00 | 0.00 | 0.00 | 48 | 1008.7 |
| 20260506000155 | 74 | 153 | 3.0 | 7.0 | 0.00 | 0.00 | 0.00 | 48 | 1008.7 |
| 20260505235646 | 74 | 143 | 4.0 | 12.0 | 0.00 | 0.00 | 0.00 | 47 | 1008.6 |
| 20260505235140 | 74 | 178 | 5.0 | 12.0 | 0.00 | 0.00 | 0.00 | 47 | 1008.6 |
| 20260505234645 | 74 | 170 | 4.0 | 9.0 | 0.00 | 0.00 | 0.00 | 47 | 1008.5 |
| 20260505234127 | 75 | 119 | 3.0 | 11.0 | 0.00 | 0.00 | 0.00 | 46 | 1008.5 |
| 20260505233623 | 75 | 172 | 4.0 | 11.0 | 0.00 | 0.00 | 0.00 | 46 | 1008.4 |
| 20260505233121 | 75 | 188 | 5.0 | 11.0 | 0.00 | 0.00 | 0.00 | 46 | 1008.3 |
| 20260505232619 | 75 | 133 | 4.0 | 11.0 | 0.00 | 0.00 | 0.00 | 46 | 1008.3 |
| 20260505232120 | 75 | 146 | 4.0 | 10.0 | 0.00 | 0.00 | 0.00 | 46 | 1008.4 |
| 20260505231619 | 76 | 159 | 4.0 | 9.0 | 0.00 | 0.00 | 0.00 | 45 | 1008.4 |
| 20260505231122 | 76 | 132 | 4.0 | 11.0 | 0.00 | 0.00 | 0.00 | 45 | 1008.4 |
| 20260505230620 | 76 | 132 | 5.0 | 11.0 | 0.00 | 0.00 | 0.00 | 45 | 1008.4 |
| 20260505230120 | 77 | 173 | 4.0 | 10.0 | 0.00 | 0.00 | 0.00 | 44 | 1008.4 |
| 20260505225844 | 77 | 127 | 5.0 | 11.0 | 0.00 | 0.00 | 0.00 | 44 | 1008.4 |
| 20260505225121 | 77 | 123 | 5.0 | 11.0 | 0.00 | 0.00 | 0.00 | 43 | 1008.4 |
| 20260505224843 | 78 | 150 | 5.0 | 15.0 | 0.00 | 0.00 | 0.00 | 43 | 1008.4 |
| 20260505224119 | 78 | 209 | 5.0 | 15.0 | 0.00 | 0.00 | 0.00 | 42 | 1008.4 |
| 20260505223619 | 78 | 194 | 4.0 | 12.0 | 0.00 | 0.00 | 0.00 | 43 | 1008.4 |
| 20260505223115 | 79 | 150 | 5.0 | 10.0 | 0.00 | 0.00 | 0.00 | 44 | 1008.3 |
| 20260505222838 | 79 | 167 | 5.0 | 11.0 | 0.00 | 0.00 | 0.00 | 44 | 1008.4 |
| 20260505222113 | 79 | 191 | 5.0 | 15.0 | 0.00 | 0.00 | 0.00 | 42 | 1008.4 |
| 20260505221611 | 79 | 165 | 7.0 | 18.0 | 0.00 | 0.00 | 0.00 | 42 | 1008.5 |
| 20260505221338 | 80 | 156 | 6.0 | 18.0 | 0.00 | 0.00 | 0.00 | 41 | 1008.4 |
| 20260505220605 | 80 | 123 | 5.0 | 13.0 | 0.00 | 0.00 | 0.00 | 40 | 1008.4 |
| 20260505215553 | 80 | 189 | 5.0 | 14.0 | 0.00 | 0.00 | 0.00 | 41 | 1008.4 |
| 20260505215046 | 79 | 162 | 6.0 | 14.0 | 0.00 | 0.00 | 0.00 | 41 | 1008.4 |
| 20260505214543 | 79 | 198 | 6.0 | 18.0 | 0.00 | 0.00 | 0.00 | 40 | 1008.4 |
| 20260505214034 | 80 | 259 | 8.0 | 18.0 | 0.00 | 0.00 | 0.00 | 40 | 1008.4 |
| 20260505213528 | 81 | 246 | 8.0 | 18.0 | 0.00 | 0.00 | 0.00 | 39 | 1008.4 |
| 20260505213022 | 81 | 246 | 6.0 | 18.0 | 0.00 | 0.00 | 0.00 | 39 | 1008.3 |
| 20260505212518 | 81 | 212 | 7.0 | 21.0 | 0.00 | 0.00 | 0.00 | 40 | 1008.1 |
| 20260505212020 | 80 | 153 | 8.0 | 21.0 | 0.00 | 0.00 | 0.00 | 39 | 1008.1 |
| 20260505211517 | 81 | 215 | 7.0 | 17.0 | 0.00 | 0.00 | 0.00 | 38 | 1008.2 |
| 20260505211248 | 81 | 212 | 7.0 | 19.0 | 0.00 | 0.00 | 0.00 | 37 | 1008.2 |
| 20260505210518 | 81 | 227 | 7.0 | 19.0 | 0.00 | 0.00 | 0.00 | 37 | 1008.1 |
| 20260505210016 | 81 | 140 | 8.0 | 18.0 | 0.00 | 0.00 | 0.00 | 38 | 1008.1 |
| 20260505205515 | 81 | 124 | 9.0 | 23.0 | 0.00 | 0.00 | 0.00 | 37 | 1008.1 |
| 20260505205016 | 81 | 217 | 8.0 | 23.0 | 0.00 | 0.00 | 0.00 | 36 | 1008.2 |
| 20260505204515 | 81 | 194 | 8.0 | 19.0 | 0.00 | 0.00 | 0.00 | 36 | 1008.2 |
| 20260505204233 | 81 | 167 | 8.0 | 24.0 | 0.00 | 0.00 | 0.00 | 36 | 1008.2 |
| 20260505203515 | 82 | 227 | 7.0 | 24.0 | 0.00 | 0.00 | 0.00 | 36 | 1008.3 |
| 20260505203249 | 81 | 211 | 8.0 | 18.0 | 0.00 | 0.00 | 0.00 | 39 | 1008.2 |
| 20260505202515 | 81 | 218 | 8.0 | 18.0 | 0.00 | 0.00 | 0.00 | 36 | 1008.2 |
| 20260505202014 | 82 | 234 | 7.0 | 16.0 | 0.00 | 0.00 | 0.00 | 36 | 1008.3 |
| 20260505201516 | 82 | 223 | 8.0 | 24.0 | 0.00 | 0.00 | 0.00 | 38 | 1008.3 |
| 20260505201013 | 81 | 239 | 9.0 | 24.0 | 0.00 | 0.00 | 0.00 | 37 | 1008.3 |
| 20260505200514 | 82 | 206 | 8.0 | 19.0 | 0.00 | 0.00 | 0.00 | 36 | 1008.4 |
| 20260505200009 | 82 | 160 | 9.0 | 23.0 | 0.00 | 0.00 | 0.00 | 38 | 1008.4 |
| 20260505195510 | 81 | 228 | 8.0 | 23.0 | 0.00 | 0.00 | 0.00 | 37 | 1008.5 |
| 20260505195009 | 82 | 166 | 7.0 | 21.0 | 0.00 | 0.00 | 0.00 | 39 | 1008.5 |
| 20260505194510 | 81 | 236 | 7.0 | 21.0 | 0.00 | 0.00 | 0.00 | 39 | 1008.4 |
| 20260505194008 | 81 | 202 | 8.0 | 21.0 | 0.00 | 0.00 | 0.00 | 41 | 1008.5 |
| 20260505193510 | 82 | 203 | 9.0 | 21.0 | 0.00 | 0.00 | 0.00 | 42 | 1008.4 |
| 20260505193011 | 81 | 216 | 8.0 | 20.0 | 0.00 | 0.00 | 0.00 | 44 | 1008.6 |